This is the latest recevied weather packets stored in our database for station/object 4S6DRJ-13. If no packets are shown the sender has not sent any weather packets the latest 10 day(s).
| Time | Temp. | Humidity | Pressure | Rain* | Wind** | Luminosity | Snow |
|---|---|---|---|---|---|---|---|
| 1788254485 | 30° C | 73% | 1008 hPa | 0 mm | 2.68 m/s, 281° | 305 W/m² | - |
| 1788254422 | 30° C | 74% | 1008 hPa | 0 mm | 2.24 m/s, 246° | 1104 W/m² | - |
| 1788254361 | 30° C | 74% | 1007.9 hPa | 0 mm | 4.02 m/s, 221° | 1105 W/m² | - |
| 1788254301 | 30° C | 73% | 1007.9 hPa | 0 mm | 3.58 m/s, 206° | 300 W/m² | - |
| 1788254240 | 30.56° C | 73% | 1007.8 hPa | 0 mm | 2.24 m/s, 216° | 269 W/m² | - |
| 1788254179 | 30.56° C | 73% | 1007.8 hPa | 0 mm | 4.02 m/s, 212° | 282 W/m² | - |
| 1788254118 | 30.56° C | 73% | 1007.7 hPa | 0 mm | 3.58 m/s, 151° | 648 W/m² | - |
| 1788254057 | 30.56° C | 73% | 1007.9 hPa | 0 mm | 4.47 m/s, 212° | 368 W/m² | - |
| 1788253996 | 30.56° C | 72% | 1007.8 hPa | 0 mm | 1.79 m/s, 177° | 382 W/m² | - |
| 1788253934 | 30.56° C | 72% | 1007.9 hPa | 0 mm | 1.34 m/s, 144° | 306 W/m² | - |
| 1788253874 | 30.56° C | 72% | 1007.9 hPa | 0 mm | 2.68 m/s, 230° | 378 W/m² | - |
| 1788253812 | 30.56° C | 73% | 1007.8 hPa | 0 mm | 2.24 m/s, 238° | 494 W/m² | - |
| 1788253751 | 30.56° C | 74% | 1007.9 hPa | 0 mm | 1.79 m/s, 198° | 968 W/m² | - |
| 1788253691 | 30.56° C | 73% | 1007.9 hPa | 0 mm | 1.79 m/s, 184° | 416 W/m² | - |
| 1788253630 | 30.56° C | 73% | 1008.1 hPa | 0 mm | 2.24 m/s, 274° | 328 W/m² | - |
| 1788253568 | 30.56° C | 73% | 1007.9 hPa | 0 mm | 2.68 m/s, 267° | 369 W/m² | - |
| 1788253525 | 30.56° C | 72% | 1007.9 hPa | 0 mm | 2.24 m/s, 233° | 651 W/m² | - |
| 1788253448 | 30.56° C | 73% | 1007.8 hPa | 0 mm | 1.79 m/s, 266° | 608 W/m² | - |
| 1788253385 | 30.56° C | 72% | 1007.8 hPa | 0 mm | 2.24 m/s, 293° | 445 W/m² | - |
| 1788253325 | 30.56° C | 72% | 1007.9 hPa | 0 mm | 1.34 m/s, 72° | 597 W/m² | - |
| 1788253264 | 30.56° C | 72% | 1008 hPa | 0 mm | 2.24 m/s, 221° | 372 W/m² | - |
| 1788253203 | 30.56° C | 71% | 1007.8 hPa | 0 mm | 2.68 m/s, 223° | 382 W/m² | - |
| 1788253142 | 30.56° C | 71% | 1007.7 hPa | 0 mm | 1.34 m/s, 271° | 412 W/m² | - |
| 1788253080 | 30.56° C | 71% | 1008 hPa | 0 mm | 0.45 m/s, 225° | 443 W/m² | - |
| 1788253019 | 30.56° C | 69% | 1007.9 hPa | 0 mm | 3.58 m/s, 174° | 400 W/m² | - |
* Rain latest hour (hover to see other rain measurements)
** Current wind speed in m/s (hover to see current wind gust speed)